Terminal Aerodrome Forecast
Issued by NWS Salt Lake City, UT

Home | Current Version | Previous Version | Text Only | Print | Product List | Glossary On
Versions: 1 2 3 4 5 6 7 8 9 10 11 12 13 14 15 16 17 18 19 20 21 22 23 24 25 26 27 28 29 30 31 32 33 34 35 36 37 38 39 40 41 42 43 44 45 46 47 48 49 50
000
FTUS45 KSLC 272330
TAFSLC
TAF
KSLC 272330Z 2800/2906 17008KT P6SM FEW040
     FM280300 16011KT P6SM SCT040 BKN080
     FM281000 17014G22KT P6SM VCSH SCT030 BKN050
     FM282000 29007KT 3/4SM -SN BR SCT004 OVC012
     FM282200 30009KT 2SM -SN BR SCT008 BKN020=

USA.gov is the U.S. government's official web portal to all federal, state and local government web resources and services.